Regional Weather Roundup
Issued by NWS

Home | Current Version | Previous Version | Text Only | Print | Product List | Glossary On
Versions: 1 2 3 4 5 6 7 8 9 10 11 12 13 14 15 16 17 18 19 20 21 22 23 24 25 26 27 28 29 30 31 32 33 34 35 36 37 38 39 40 41 42 43 44 45 46 47 48 49 50
000
ASUS43 KDMX 240706
RWRIA

WEATHER ROUNDUP FOR IOWA
NATIONAL WEATHER SERVICE DES MOINES IA
200 AM CDT MON JUL 24 2017

NOTE: "FAIR" INDICATES FEW OR NO CLOUDS BELOW 12,000 FEET WITH NO
SIGNIFICANT WEATHER AND/OR OBSTRUCTIONS TO VISIBILITY.

* - THESE STATIONS ARE NOT NWS STATIONS...THUS NOT UNDER NWS
QUALITY CONTROL.  THEY ALSO DO NOT REPORT WEATHER SUCH
AS PRECIPITATION OR FOG.

IAZ001>003-012>014-020>022-031>034-043>046-240800-
   NORTHWEST IOWA

CITY           SKY/WX    TMP DP  RH WIND       PRES   REMARKS
CARROLL *      CLEAR     61  61 100 NW6       30.02S
CHEROKEE *     CLEAR     58  58 100 CALM      30.03S
DENISON *      CLEAR     61  61 100 CALM      30.04S
ORANGE CITY *  CLEAR     64  61  88 CALM      30.04S
SHELDON *      CLEAR     55  55 100 CALM      30.02F
SIOUX CITY     CLEAR     61  59  93 CALM      30.02S
SPENCER        CLEAR     57  56  96 NW3       30.03S
STORM LAKE *   CLEAR     61  57  88 N5        30.04S
$$

IAZ055>058-069>071-079>083-090>094-240800-
   SOUTHWEST IOWA

CITY           SKY/WX    TMP DP  RH WIND       PRES   REMARKS
ATLANTIC *     CLEAR     61  61 100 N3        30.01S
AUDUBON *      CLEAR     59  55  88 CALM      30.03F
CLARINDA *       N/A     64  64 100 NE3       30.02S
COUNCIL BLFS * CLEAR     66  63  88 E6        30.01F
CRESTON *      CLEAR     64  61  88 N8        30.01F
HARLAN  *      CLEAR     59  59 100 CALM      30.05S
LAMONI         CLEAR     66  61  84 N5        29.99S
RED OAK *      CLEAR     64  63  94 CALM      30.01S
SHENANDOAH *   CLEAR     64  63  94 NE5       30.00F
$$

IAZ047>049-059>061-072>074-084-240800-
   CENTRAL IOWA

CITY           SKY/WX    TMP DP  RH WIND       PRES   REMARKS
AMES           CLEAR     63  62  97 N6        30.00S
ANKENY *       CLEAR     63  61  94 N3        30.00S
BOONE *        CLEAR     63  59  88 N6        30.00S
CHARITON *     CLEAR     64  61  88 NW6       29.98S
DES MOINES     CLEAR     68  61  78 NW7       29.98S
GRINNELL*      CLEAR     61  59  92 N6        30.00S
KNOXVILLE *    CLEAR     64  59  82 NW6       29.97S
MARSHALLTOWN   CLEAR     62  61  96 N7        29.99R
NEWTON *       CLEAR     64  61  88 N7        29.99S
PELLA *          N/A     63  60  90 N3        29.98F
$$

IAZ004>006-015-016-023>025-035-036-240800-
   NORTH CENTRAL IOWA

CITY           SKY/WX    TMP DP  RH WIND       PRES   REMARKS
ALGONA *       CLEAR     61  61 100 NE3       30.03S
CLARION *      CLEAR     61  61 100 NE6       30.02S
ESTHERVILLE    CLEAR     60  59  96 NE5       30.03R
FORT DODGE *   PTCLDY    61  57  88 CALM      30.03S
MASON CITY     CLEAR     58  56  93 N6        30.04R
FOREST CITY *    N/A     61  59  94 CALM      30.02S
WEBSTER CITY * CLEAR     59  57  94 CALM      30.00S
IOWA FALLS *     N/A     63  60  91 CALM      30.02S
$$

IAZ007>011-017>019-026>030-037>042-050>054-066-240800-
   NORTHEAST IOWA

CITY           SKY/WX    TMP DP  RH WIND       PRES   REMARKS
CEDAR RAPIDS   CLEAR     62  62 100 N7        29.95S
CHARLES CITY * CLEAR     59  59 100 N6        30.01S
DECORAH *      CLEAR     61  59  94 N3        29.99R
DUBUQUE        CLEAR     63  60  90 N8        29.96S
MONTICELLO *   CLEAR     63  61  94 N6        29.95S
OELWEIN *        N/A    N/A N/A N/A MISG        N/A
WATERLOO       CLEAR     60  58  92 N5        29.98S
$$

IAZ064-065-067-068-078-240800-
   EAST CENTRAL IOWA

CITY           SKY/WX    TMP DP  RH WIND       PRES   REMARKS
DAVENPORT      CLEAR     63  61  93 NW5       29.95S
IOWA CITY      CLEAR     70  62  76 N7        29.96S
MT. PLEASANT * CLEAR     65  61  86 NW5       29.95S
MUSCATINE *    CLEAR     66  63  88 NW3       29.94S
QUAD CITIES    CLEAR     69  61  75 CALM      29.92S
$$

IAZ062-063-075>077-085>089-095>099-240800-
   SOUTHEAST IOWA

CITY           SKY/WX    TMP DP  RH WIND       PRES   REMARKS
BURLINGTON     CLEAR     67  64  90 N6        29.93S
FAIRFIELD *    CLEAR     63  59  88 NW7       29.95S
FORT MADISON * CLEAR     64  63  94 CALM      29.95S
KEOKUK *       CLEAR     68  63  83 N5        29.93S
OSKALOOSA *      N/A     61  59  93 NW6       29.97S
CENTERVILLE *    N/A     63  61  94 CALM      29.99R
OTTUMWA        CLEAR     65  61  87 NW8       29.96S
WASHINGTON *   CLEAR     64  63  94 NW6       29.96S
$$

ABBREVIATIONS USED IN REMARKS
   TC - TEMPERATURES IN CELSIUS
  WCI - WIND CHILL INDEX
   HX - HEAT INDEX
  VSB - VISIBILITY
$$





USA.gov is the U.S. government's official web portal to all federal, state and local government web resources and services.